This is the latest recevied weather packets stored in our database for station/object N1YZ. If no packets are shown the sender has not sent any weather packets the latest 10 day(s).
| Time | Temp. | Humidity | Pressure | Rain* | Wind** | Luminosity | Snow |
|---|---|---|---|---|---|---|---|
| 1778005641 | 24.44° C | 63% | 1033.4 hPa | 0 mm | - | 665 W/m² | - |
| 1778005338 | 23.89° C | 61% | 1033.7 hPa | 0 mm | - | 162 W/m² | - |
| 1778005034 | 22.78° C | 63% | 1033.5 hPa | 0 mm | - | 740 W/m² | - |
| 1778004732 | 22.78° C | 64% | 1033.7 hPa | 0 mm | - | 557 W/m² | - |
| 1778004429 | 23.33° C | 66% | 1033.8 hPa | 0 mm | - | 163 W/m² | - |
| 1778004125 | 23.33° C | 62% | 1033.7 hPa | 0 mm | - | 295 W/m² | - |
| 1778003821 | 22.78° C | 65% | 1033.6 hPa | 0 mm | - | 423 W/m² | - |
| 1778003518 | 22.78° C | 66% | 1033.7 hPa | 0 mm | - | 522 W/m² | - |
| 1778003214 | 22.78° C | 66% | 1033.8 hPa | 0 mm | - | 412 W/m² | - |
| 1778002910 | 22.22° C | 66% | 1034.2 hPa | 0 mm | - | 366 W/m² | - |
| 1778002606 | 22.22° C | 64% | 1034.1 hPa | 0 mm | - | 287 W/m² | - |
| 1778002304 | 22.78° C | 65% | 1034.2 hPa | 0 mm | - | 213 W/m² | - |
| 1778002001 | 22.78° C | 66% | 1034 hPa | 0 mm | - | 414 W/m² | - |
| 1778001698 | 23.33° C | 60% | 1034.3 hPa | 0 mm | - | 532 W/m² | - |
| 1778001398 | 23.33° C | 58% | 1034.3 hPa | 0 mm | - | 592 W/m² | - |
| 1778001096 | 22.78° C | 66% | 1034.1 hPa | 0 mm | - | 675 W/m² | - |
| 1778000793 | 22.78° C | 63% | 1034.3 hPa | 0 mm | - | 730 W/m² | - |
| 1778000489 | 22.22° C | 60% | 1034.3 hPa | 0 mm | - | 484 W/m² | - |
| 1778000184 | 21.67° C | 67% | 1034.5 hPa | 0 mm | - | 651 W/m² | - |
| 1777999880 | 22.22° C | 66% | 1034.6 hPa | 0 mm | - | 649 W/m² | - |
| 1777999575 | 22.22° C | 65% | 1034.5 hPa | 0 mm | - | 633 W/m² | - |
| 1777999274 | 22.22° C | 64% | 1034.3 hPa | 0 mm | - | 589 W/m² | - |
| 1777998972 | 22.22° C | 66% | 1034.5 hPa | 0 mm | - | 660 W/m² | - |
| 1777998669 | 22.22° C | 65% | 1034.8 hPa | 0 mm | - | 646 W/m² | - |
| 1777998366 | 22.22° C | 63% | 1034.4 hPa | 0 mm | - | 684 W/m² | - |
* Rain latest hour (hover to see other rain measurements)
** Current wind speed in m/s (hover to see current wind gust speed)